Wind_Speed
18 18 19 19 20 20 21 22 22 23 23 23 23 23 24 24 24 24 23 24 27 29 30 32 33 33 34 33 32 30 29 29 29 28 27 25 24 23 23 24 24 25 25 25 26 27 28 29 30 30 31 31 32 32 33 34 35 35 37 38 38 39 39 39 40 41 42 43 43 43 42 44 46 46 45 42 42 42 42 41 39 38 37 37 37 35 33 34
18 18 19 19 20 20 21 22 22 23 23 23 23 23 23 24 24 23 23 24 27 29 30 31 32 33 33 33 32 30 29 29 29 28 27 25 24 24 25 25 26 26 27 27 27 27 28 29 29 29 29 29 30 30 31 33 34 36 37 38 40 41 41 42 42 43 43 44 44 44 43 44 46 48 47 46 45 45 46 45 42 41 40 40 39 38 36 35
18 19 19 19 20 20 21 21 22 23 23 22 22 23 23 23 23 23 23 24 27 28 30 31 32 33 33 33 32 30 30 30 30 29 28 26 26 26 27 28 28 28 28 28 28 28 28 27 27 26 25 25 25 26 27 28 29 31 33 35 37 38 41 43 42 43 45 46 47 47 45 45 46 48 48 48 47 46 48 48 46 46 44 43 43 41 39 37
19 19 19 20 20 21 21 21 22 22 23 22 22 22 23 23 23 23 23 24 26 28 30 31 32 33 33 33 31 30 30 30 30 30 28 27 27 28 29 30 31 30 30 29 29 28 26 24 22 21 19 18 19 19 20 21 22 24 26 27 30 31 34 38 37 38 42 45 46 48 48 48 48 48 48 49 48 48 49 50 50 50 48 47 45 44 42 40
19 19 19 19 20 21 21 21 22 22 22 22 22 22 23 23 23 23 23 24 26 28 29 31 32 33 33 33 32 30 29 30 31 30 28 28 29 31 32 33 33 32 31 30 29 27 23 19 18 17 16 15 15 15 16 18 19 20 22 23 25 27 28 30 31 31 35 39 40 42 45 46 48 49 50 51 49 48 50 51 51 52 51 48 47 46 45 43
19 19 19 19 20 20 21 21 22 22 22 22 21 22 23 23 23 23 24 25 26 27 29 30 32 33 33 33 32 30 30 31 31 29 29 29 30 33 35 35 34 32 31 30 28 23 18 17 16 17 17 17 17 17 17 18 19 21 23 23 24 27 28 28 29 28 30 34 35 36 38 38 41 43 47 51 50 50 51 52 51 52 51 49 48 48 47 46
19 20 20 20 20 20 21 21 22 22 22 22 21 22 23 23 23 23 24 25 26 27 29 30 32 33 33 33 32 30 31 31 30 30 29 30 32 34 37 37 35 33 31 29 24 18 16 17 17 17 18 19 20 21 21 22 23 23 26 26 26 28 30 30 30 30 31 33 34 36 35 34 35 37 40 44 45 47 50 52 53 53 52 51 51 51 51 49
19 20 20 20 20 20 21 21 22 22 22 21 21 22 23 23 23 23 24 26 26 27 29 30 31 33 33 33 32 30 31 31 31 30 30 31 33 35 37 37 35 32 30 27 20 15 15 16 17 18 19 20 22 23 24 25 26 26 28 29 30 31 32 33 33 34 34 35 36 37 37 36 36 38 37 36 37 39 42 48 53 56 55 54 53 54 54 52
20 20 20 20 20 20 21 22 22 22 22 21 21 22 22 23 23 24 25 26 27 27 28 30 31 33 33 33 31 30 31 31 31 31 31 32 34 36 37 37 34 30 28 24 17 13 15 17 19 20 21 22 23 25 26 27 27 28 29 30 31 33 34 36 36 37 38 38 39 38 38 38 40 43 39 33 34 35 37 42 48 53 56 56 55 55 55 55
20 20 20 20 20 20 21 21 22 22 22 21 20 21 22 23 23 24 25 26 27 27 28 29 31 33 33 33 31 30 31 31 31 31 31 33 35 36 37 36 32 28 25 20 16 15 17 20 21 22 23 24 25 27 28 30 31 31 32 32 33 34 35 37 38 40 41 41 41 41 39 38 41 44 39 34 35 38 39 41 42 46 51 55 56 56 56 56
20 21 20 20 20 20 21 21 22 22 21 21 20 21 22 23 24 25 25 27 27 27 28 29 31 32 33 33 32 31 31 31 31 32 32 33 35 37 37 34 30 26 22 18 16 18 20 22 24 24 24 26 27 29 30 32 33 33 33 33 34 35 36 37 39 40 41 42 43 43 40 37 40 42 39 37 40 41 41 40 40 41 43 48 54 57 57 57
21 21 21 20 20 20 21 21 22 22 21 21 20 21 22 23 24 25 26 27 27 27 28 29 30 32 33 34 32 32 31 31 32 32 33 34 35 37 36 33 28 23 19 17 18 21 23 24 26 27 27 28 30 31 31 31 32 33 33 34 34 35 37 37 39 40 41 43 44 45 41 38 39 40 40 40 42 42 40 39 41 41 40 42 47 54 58 59
21 21 21 20 20 20 21 21 22 22 21 20 20 21 22 23 24 26 26 27 28 28 28 29 30 31 33 34 33 32 31 32 32 33 34 35 36 36 35 31 25 20 17 17 20 22 25 26 27 29 30 31 32 33 33 32 32 33 34 34 35 36 37 38 39 41 42 43 45 48 44 39 40 41 42 41 41 43 42 40 41 41 41 41 43 49 55 59
22 22 21 21 21 21 21 21 22 22 21 20 20 20 22 23 25 26 27 27 28 28 28 29 29 31 33 33 33 32 32 32 32 33 34 35 36 36 34 29 21 17 18 19 21 23 25 26 28 30 32 33 34 34 34 35 34 35 36 36 36 36 37 38 39 40 43 44 46 48 46 41 42 44 45 43 42 42 42 42 42 42 42 43 43 46 50 56
22 22 22 21 21 21 21 21 22 22 20 20 20 20 21 23 25 27 27 27 28 28 28 28 29 31 32 33 32 32 32 32 33 33 35 36 36 34 31 25 18 16 18 21 23 25 26 27 29 31 33 34 34 35 36 37 37 37 36 36 36 37 37 38 38 39 42 45 46 48 47 42 42 44 46 45 42 41 41 42 43 42 43 43 43 44 47 52
22 22 22 21 21 21 21 21 22 22 20 20 20 20 21 23 25 27 28 28 27 28 28 28 29 31 32 33 32 32 32 32 34 34 35 36 36 33 28 21 15 15 19 22 25 26 26 29 31 33 34 35 36 36 36 37 37 36 35 35 35 36 37 37 38 39 41 44 46 48 48 43 41 43 45 44 42 41 40 41 43 43 43 43 44 44 45 49
23 23 22 21 21 21 21 21 22 22 20 20 20 20 21 22 24 27 28 28 28 28 28 28 29 30 31 32 32 32 32 33 34 35 36 37 36 33 26 18 14 16 19 23 26 27 28 30 31 33 35 36 37 37 36 36 35 33 32 32 33 35 36 37 38 39 40 42 45 47 46 41 40 43 43 42 41 40 39 39 41 42 43 43 44 45 45 46
23 23 22 22 21 22 21 21 22 22 21 20 20 21 21 22 24 26 28 29 28 29 28 28 28 29 30 32 33 32 32 33 34 35 36 37 36 33 25 17 15 17 18 21 26 27 27 29 32 34 36 37 38 39 40 39 37 34 32 32 32 33 34 36 37 38 40 41 43 45 42 38 40 43 42 40 42 41 38 38 40 42 43 44 45 47 47 45
23 23 23 22 22 22 21 22 22 22 21 21 21 21 22 22 24 26 29 30 29 29 28 28 28 29 30 31 33 33 32 33 34 35 36 36 37 33 26 19 16 18 20 22 25 27 28 30 33 35 36 38 40 41 41 41 39 37 35 34 34 35 35 35 36 37 39 40 42 44 40 37 38 41 41 39 42 42 39 38 38 40 42 44 45 47 48 47
24 23 23 22 22 23 22 22 22 22 22 22 22 22 23 23 24 26 29 30 30 29 29 28 28 29 29 31 32 32 32 33 34 35 36 36 35 32 27 22 18 18 21 22 25 29 30 31 33 36 38 40 41 42 43 42 41 40 39 38 38 38 37 36 36 36 39 40 40 41 40 37 36 37 40 41 42 42 40 38 38 39 41 43 45 46 48 49
24 24 23 23 23 23 22 22 22 23 23 22 22 23 24 24 24 25 28 30 30 29 29 28 28 28 29 30 31 32 32 33 34 35 36 36 35 31 27 23 19 19 20 22 25 28 30 32 34 37 39 41 42 43 44 44 43 42 41 41 40 39 38 37 37 37 39 41 40 39 38 35 33 35 38 41 42 41 41 41 42 41 41 42 44 46 47 49
25 24 24 23 23 23 23 23 23 23 23 23 23 23 24 25 25 25 27 30 30 29 29 28 28 28 28 29 30 31 32 32 34 35 35 35 35 32 29 24 21 20 21 23 25 27 30 33 35 37 39 41 43 44 44 44 43 41 40 40 39 38 37 35 36 37 38 39 38 38 37 33 31 34 37 39 40 40 42 44 43 42 41 40 42 45 47 49
25 25 24 23 24 24 23 23 23 24 24 24 24 24 25 26 26 26 27 30 31 30 29 28 28 27 28 28 29 31 32 32 33 35 35 35 35 33 31 27 23 22 21 22 25 27 29 32 34 36 39 41 43 45 45 44 43 42 40 40 39 39 38 36 35 37 38 38 37 36 36 31 28 33 35 37 39 39 41 42 40 38 38 38 40 43 46 48
26 25 24 24 24 24 24 24 24 24 25 24 25 25 26 27 27 26 27 29 31 30 29 28 27 27 27 28 29 30 31 32 33 34 35 35 35 34 32 28 25 24 23 22 25 27 28 31 33 35 38 41 43 45 46 46 45 45 44 43 42 41 40 38 36 37 38 38 37 37 36 29 25 30 33 35 38 39 40 40 38 36 36 37 39 40 42 45
26 26 25 25 25 24 24 25 25 25 25 25 25 26 27 27 28 27 27 28 30 31 29 27 27 27 27 28 29 29 30 31 32 34 34 35 34 34 32 29 26 26 25 24 26 27 28 30 33 35 38 41 43 45 47 47 47 48 48 47 46 45 42 39 38 38 38 37 37 38 37 30 25 29 31 33 37 38 38 39 38 36 37 38 38 39 41 44
27 26 26 25 25 25 25 25 25 26 26 25 26 27 27 28 28 28 27 28 30 30 29 27 26 26 27 28 29 29 30 30 31 33 34 34 34 34 33 29 25 25 25 25 25 26 29 30 32 35 37 40 42 44 46 48 49 51 52 52 51 49 46 41 39 40 40 39 39 36 35 33 27 24 25 31 35 36 37 39 38 37 38 38 39 41 43 46
27 27 27 26 26 26 26 25 26 26 26 26 26 27 28 28 29 29 28 28 29 29 28 27 26 26 27 29 29 30 30 30 31 32 34 34 34 34 33 30 27 27 27 27 27 27 29 31 33 35 37 39 41 43 46 48 51 52 54 54 53 51 48 43 40 40 42 42 40 33 32 35 31 21 21 28 30 32 36 39 39 39 39 40 41 44 46 48
28 28 27 27 27 26 26 26 26 27 27 27 27 27 28 29 29 29 29 29 29 28 28 28 27 27 28 29 29 30 31 31 31 32 34 34 34 34 32 30 27 26 27 29 29 29 31 32 34 35 36 38 40 43 46 49 51 53 55 56 54 51 48 44 41 40 43 44 39 31 30 34 32 24 24 28 29 32 36 37 39 39 41 41 42 44 46 49
29 29 28 28 27 27 27 26 27 27 28 27 27 27 28 29 29 29 30 29 28 28 29 29 27 26 27 29 29 29 30 31 31 32 33 34 35 35 34 32 28 25 25 28 30 30 31 33 34 35 36 38 41 43 46 49 52 54 57 58 56 52 48 45 41 40 44 43 36 30 27 31 29 23 24 29 30 32 34 36 38 39 41 43 43 44 46 50
30 30 29 28 28 28 27 27 27 28 28 28 27 28 29 29 29 29 30 30 28 28 29 29 28 27 28 29 29 29 30 30 31 31 33 34 35 35 36 34 30 26 24 26 28 29 29 31 34 37 38 39 41 43 46 49 52 55 58 59 56 53 50 45 43 45 47 41 33 28 26 29 29 24 24 28 28 30 32 34 36 38 41 42 44 46 45 47
31 31 30 29 29 28 28 28 28 29 29 28 28 28 29 30 29 29 30 31 30 29 29 29 29 28 28 29 29 28 28 29 30 30 32 33 34 34 35 35 32 26 23 23 26 29 30 30 34 37 38 41 42 44 46 48 52 56 59 61 57 54 51 47 47 51 49 39 31 26 26 29 29 27 26 28 29 31 33 33 35 37 40 41 43 44 44 45
32 31 30 30 30 29 29 29 29 30 29 29 29 29 30 31 29 28 30 32 31 30 30 30 30 29 28 29 29 29 28 29 29 30 31 32 33 34 35 36 35 31 28 24 24 28 30 30 32 36 38 42 44 45 47 49 53 57 60 62 60 57 54 51 52 53 45 36 31 26 25 28 27 28 29 28 29 30 31 35 38 39 40 39 38 39 43 43
33 32 32 31 31 30 30 30 30 31 31 30 30 30 31 31 30 29 30 32 32 31 31 31 30 30 29 29 30 29 28 28 29 29 30 31 33 34 35 36 37 35 33 29 25 26 30 31 32 36 39 42 45 47 49 51 53 57 60 62 61 58 57 58 57 52 41 32 28 26 27 27 26 27 30 30 30 31 34 38 40 39 36 35 37 39 41 37
34 33 33 32 31 31 30 31 32 32 32 32 31 32 32 31 30 30 31 31 31 31 32 32 31 30 29 30 30 29 29 29 28 28 29 31 32 33 34 35 36 36 34 31 28 27 32 35 34 36 39 41 44 47 49 51 53 56 60 62 60 56 57 60 56 51 43 31 25 27 29 28 26 26 29 32 34 36 37 36 33 28 24 24 28 31 32 29
35 34 33 32 32 31 32 33 33 33 33 33 32 32 31 31 31 31 31 31 31 31 32 32 32 30 29 29 30 30 30 30 29 28 28 30 31 33 34 35 36 36 35 32 30 28 30 36 36 36 39 41 42 45 48 50 53 56 60 62 59 55 57 59 53 48 43 33 28 30 30 27 24 24 29 33 35 34 30 26 22 17 13 14 17 21 26 27
36 35 34 33 33 33 33 34 34 34 34 34 34 32 31 31 31 31 32 32 31 31 32 32 31 30 29 28 28 29 30 30 30 28 27 28 30 31 33 34 35 36 35 33 32 30 28 33 37 36 38 40 41 44 47 49 52 57 60 62 59 55 57 59 54 47 40 35 34 32 27 23 21 24 30 33 30 24 21 20 17 13 10 11 13 14 22 26
37 35 34 34 34 34 34 35 36 36 36 35 34 31 30 31 31 32 33 32 31 31 32 32 31 30 30 29 27 27 29 30 30 28 27 27 29 29 31 33 35 35 35 33 33 32 29 29 34 35 36 39 41 43 46 49 52 56 59 61 59 56 57 59 56 49 40 35 34 31 25 22 24 28 29 28 22 18 18 18 16 12 7 5 6 8 18 24
37 36 36 36 35 35 35 36 37 37 37 36 33 31 31 31 31 32 33 32 31 31 32 32 31 29 30 30 28 27 28 30 30 28 27 27 28 29 30 32 34 34 34 33 32 33 32 29 30 34 36 38 41 43 45 48 51 54 58 61 58 57 59 59 55 49 42 36 33 30 25 25 29 29 25 20 18 17 18 18 15 11 7 5 6 13 21 28
38 37 37 37 36 36 37 38 39 38 38 35 32 31 32 31 31 32 33 32 31 32 31 31 31 30 30 31 29 27 27 30 31 29 28 27 27 28 29 31 33 34 34 33 32 32 34 32 30 32 35 38 41 43 44 47 50 53 58 60 57 56 58 56 52 46 42 39 36 33 29 28 27 23 21 20 18 19 20 17 14 12 15 17 18 18 22 31
38 38 38 37 37 38 39 40 40 39 37 34 32 33 33 32 32 32 33 32 31 32 31 30 30 30 31 32 31 29 27 28 31 30 28 27 27 28 29 30 32 34 33 33 32 31 32 32 30 30 31 35 39 43 44 46 49 53 56 58 56 54 53 52 49 45 42 39 37 35 31 26 22 19 20 22 21 22 20 15 15 19 22 20 18 18 24 36
39 39 39 38 39 39 40 41 41 39 37 35 33 33 33 33 33 33 33 32 31 32 31 31 31 31 32 32 31 30 28 27 29 30 27 26 26 27 28 30 31 33 33 33 32 31 31 31 31 30 32 33 35 40 44 46 49 52 54 55 54 51 49 48 47 45 41 37 35 34 30 25 22 21 22 23 21 20 18 20 20 20 20 22 23 27 34 42
40 40 40 40 41 41 42 42 41 39 37 35 33 34 35 34 34 34 33 32 32 32 31 32 32 32 32 33 31 30 29 27 28 29 27 26 25 25 27 28 30 32 32 32 32 32 31 31 29 29 31 33 33 36 40 44 48 50 51 53 51 48 47 47 46 44 40 36 34 34 30 25 23 23 24 23 22 20 20 22 22 20 22 29 33 34 37 40
42 42 42 42 43 43 44 43 41 38 36 35 34 35 36 35 34 34 33 32 33 33 32 32 32 32 32 33 32 30 29 28 27 28 27 26 25 24 25 27 29 31 32 31 31 31 32 32 31 29 28 29 31 33 38 43 46 48 50 51 50 47 45 45 43 41 40 39 38 35 30 26 23 22 22 23 24 25 23 22 22 22 23 28 30 30 34 39
44 44 44 44 44 44 44 43 39 38 37 36 35 36 36 36 34 33 32 33 34 34 33 32 32 32 31 31 31 30 30 29 27 27 27 26 24 23 24 26 28 30 31 31 30 29 31 33 35 34 33 32 32 33 36 39 43 46 48 48 49 46 42 42 41 39 38 38 38 37 34 29 25 22 21 22 22 24 23 22 23 23 25 28 26 25 32 37
46 46 46 46 45 45 44 41 39 38 37 37 37 37 37 36 34 32 32 33 34 34 33 32 32 32 30 31 31 30 29 29 28 27 26 25 23 22 23 25 27 28 30 30 29 28 28 30 32 34 36 37 37 36 37 38 41 43 45 45 47 45 42 40 40 39 37 35 35 36 35 32 26 21 20 20 22 24 24 23 23 24 25 22 19 20 28 34
48 49 48 46 45 44 43 42 40 39 38 37 38 38 37 35 34 32 32 33 34 34 33 33 32 30 30 31 31 30 29 29 29 28 27 25 23 22 22 23 25 27 29 29 29 26 25 26 28 30 31 32 34 35 35 37 38 40 42 43 45 45 42 39 39 40 38 36 35 34 33 31 26 21 18 18 20 22 20 20 21 22 22 18 16 19 25 32
50 50 48 46 45 44 44 42 41 40 39 39 40 39 37 35 33 32 32 34 34 34 33 32 31 31 30 31 31 29 29 29 29 28 27 26 24 21 21 22 24 26 28 28 28 26 25 24 24 26 27 28 29 31 31 33 35 37 39 41 43 44 42 38 37 39 39 38 37 35 32 29 23 17 16 16 18 21 19 18 19 19 20 19 16 20 28 34
52 50 47 46 46 45 44 43 42 42 41 40 41 40 37 34 32 32 33 34 34 33 34 32 31 31 31 31 30 29 29 30 28 28 28 27 25 22 20 21 23 25 27 28 28 27 25 24 22 23 26 26 27 29 29 31 33 34 36 39 40 42 42 38 35 35 39 41 39 35 32 28 22 18 16 15 17 22 21 19 19 19 18 19 20 25 32 36
53 50 48 47 47 46 45 45 44 44 42 42 42 40 37 34 32 32 35 35 34 33 33 32 31 32 32 30 30 29 29 29 27 26 28 27 25 23 21 20 21 23 26 28 28 27 25 24 22 21 23 25 25 27 27 28 30 32 34 37 38 39 40 39 35 32 34 38 39 35 31 28 24 19 17 16 18 23 24 22 23 23 22 23 25 29 32 33
53 50 48 48 48 48 47 47 46 45 44 45 43 39 37 34 32 34 36 36 35 34 32 32 32 33 32 30 30 30 30 28 25 26 28 27 25 23 21 20 20 22 24 27 28 27 25 24 22 21 22 23 23 24 25 26 27 29 31 34 36 36 37 38 36 31 29 32 36 35 31 28 22 16 16 18 20 24 24 22 24 27 27 27 28 28 28 28
53 51 49 49 49 49 49 48 48 47 46 44 41 38 38 36 35 35 36 36 35 33 32 33 34 34 32 29 30 31 30 26 24 26 27 26 24 23 21 20 19 20 23 25 27 27 25 24 22 21 21 21 21 21 23 24 24 25 29 31 33 34 35 36 36 32 27 26 30 32 31 29 24 18 17 19 21 23 23 23 26 27 27 28 27 26 25 25
54 52 50 51 52 52 50 49 49 48 45 42 40 40 40 38 36 36 36 36 34 33 34 35 34 33 31 29 30 32 30 26 25 27 27 25 24 22 21 19 19 19 21 24 26 26 25 24 22 21 21 21 20 20 21 23 22 23 26 28 30 32 34 34 35 34 29 23 23 25 27 28 27 21 18 18 20 22 25 27 28 25 24 26 26 25 24 23
Wind_Direction
307 308 310 312 315 320 323 325 328 329 331 333 334 334 334 335 337 339 340 342 343 342 344 347 349 349 347 344 341 338 336 335 335 335 335 333 332 331 329 326 322 317 313 309 305 302 299 296 294 291 288 285 282 279 276 273 270 268 267 266 266 266 266 266 266 265 265 263 261 259 258 258 258 256 253 249 248 249 250 250 249 250 250 249 248 248 246 247
305 307 308 310 314 318 321 323 327 328 330 333 334 333 333 334 336 338 339 341 342 342 344 348 349 349 347 343 341 338 336 336 336 337 337 335 334 333 331 328 325 321 317 313 309 306 303 300 297 294 291 289 286 283 280 277 274 271 269 268 267 266 267 266 266 266 265 264 262 260 257 256 257 256 254 251 249 249 250 250 249 248 248 249 249 248 246 246
302 304 306 308 312 316 319 322 326 328 329 332 333 332 331 332 335 337 338 340 341 342 345 348 350 349 347 344 341 339 337 337 338 338 338 337 336 334 333 331 328 325 322 319 316 313 310 307 303 300 299 296 294 291 287 283 281 278 276 274 272 272 271 269 269 270 268 267 265 263 260 257 256 255 255 253 251 250 250 250 248 246 246 248 249 249 247 246
299 301 303 306 310 314 317 321 326 327 328 331 332 331 330 331 333 335 337 339 340 342 344 347 350 350 347 344 341 340 338 338 339 339 339 338 336 335 335 333 331 329 327 325 323 321 318 316 314 312 311 309 305 304 301 296 294 290 288 286 283 280 278 277 277 276 274 272 270 269 266 262 259 256 255 255 252 250 251 250 248 248 247 247 248 248 248 246
295 299 301 303 308 312 316 321 325 327 327 330 332 330 329 329 331 334 335 337 338 341 344 347 350 350 347 344 341 341 340 339 340 341 339 338 336 336 337 336 335 332 330 329 328 327 326 327 328 326 326 324 319 316 314 309 307 304 300 298 294 291 288 286 286 284 282 279 277 275 272 269 266 262 260 257 253 251 252 251 250 250 248 246 246 247 247 247
293 297 298 302 306 310 314 319 324 326 326 329 331 329 328 328 330 332 333 335 337 340 344 347 350 350 347 344 342 341 341 341 342 341 340 338 338 338 339 339 337 335 333 333 333 331 333 336 337 335 333 332 328 322 318 312 310 307 301 299 296 294 292 289 287 286 284 284 283 280 278 276 273 268 265 261 257 254 253 253 251 249 248 245 243 244 245 245
293 295 296 300 304 307 312 318 323 324 324 328 331 328 326 326 327 330 331 333 335 339 343 347 350 350 347 344 342 342 342 343 342 342 340 339 339 339 340 340 339 337 334 334 335 334 336 339 339 336 333 331 327 321 317 311 308 304 299 297 294 291 289 287 286 283 281 281 281 280 280 279 277 273 269 266 263 259 256 253 251 249 248 245 242 242 242 242
291 292 294 297 301 306 311 316 322 323 323 328 330 327 325 324 325 328 329 331 333 337 342 346 350 350 347 344 343 342 342 343 343 342 341 340 340 341 342 341 339 337 334 335 337 333 333 336 334 330 327 325 321 317 313 308 305 302 298 297 294 290 288 286 285 283 280 278 277 278 278 277 276 274 271 271 270 266 261 256 252 249 247 246 243 241 240 240
288 290 292 295 299 304 310 315 319 321 322 326 329 326 324 323 323 326 328 330 332 336 341 345 349 350 348 344 343 342 343 344 343 342 341 341 342 343 343 342 340 336 334 336 338 332 330 331 328 325 324 322 319 315 312 307 305 301 297 295 291 290 288 287 286 283 281 280 279 278 277 276 275 273 272 274 274 271 266 259 254 250 247 246 244 243 241 239
286 289 289 292 298 303 309 314 317 320 321 325 327 325 323 322 321 325 327 329 332 335 340 344 348 350 348 344 342 342 343 344 343 342 341 342 343 343 344 343 340 336 334 336 337 332 331 330 327 325 324 323 320 317 314 310 306 302 299 296 293 291 289 287 285 283 282 281 280 279 278 276 274 274 275 272 269 268 266 263 259 255 250 247 244 243 242 240
284 286 286 290 295 301 307 312 315 318 320 324 326 323 321 321 320 323 326 328 331 334 338 343 347 350 348 344 341 341 343 344 344 342 341 342 343 344 345 344 340 336 335 336 335 334 334 331 327 326 326 324 321 317 315 312 308 305 302 299 297 294 291 289 286 284 282 280 278 278 278 276 274 274 273 266 264 266 267 267 264 260 255 249 245 242 241 240
282 283 284 288 293 299 305 309 313 316 319 323 324 322 321 320 319 321 324 327 330 333 336 341 346 349 347 344 341 341 342 344 344 342 341 342 343 345 346 345 341 337 337 337 336 337 335 331 328 326 327 326 322 319 316 313 309 306 303 300 297 294 292 290 288 286 283 280 277 276 277 277 273 272 269 264 264 265 265 265 265 262 259 254 247 242 239 238
279 280 282 286 291 297 303 308 312 315 318 321 323 320 319 319 318 319 322 325 329 332 335 339 346 348 347 345 341 340 341 343 344 342 341 342 344 346 347 346 342 339 338 338 339 338 334 330 328 327 328 327 324 322 318 315 311 307 304 301 298 294 292 290 288 287 285 282 278 276 276 276 272 270 268 265 263 263 262 262 262 262 260 257 252 244 239 237
275 277 280 284 289 295 301 306 310 313 317 319 321 319 318 317 317 317 320 324 327 330 333 338 345 346 346 344 341 340 341 342 342 341 341 343 344 346 348 347 344 341 338 338 339 338 334 329 328 330 330 329 325 322 319 316 313 311 308 304 300 296 294 292 290 288 285 282 279 277 276 275 272 270 267 265 262 261 261 260 259 259 259 257 254 248 242 237
273 275 277 282 287 293 299 304 308 311 315 318 319 317 316 316 316 316 319 322 325 328 331 337 343 345 345 344 341 340 340 341 341 341 342 343 345 347 349 349 346 342 337 336 340 339 333 330 331 333 331 328 325 323 322 319 316 314 310 305 302 300 298 296 292 289 285 281 279 277 275 274 273 271 268 265 263 259 258 258 257 256 257 257 255 251 245 239
271 273 275 280 286 291 297 303 306 309 313 315 316 315 315 315 315 316 318 321 324 326 329 335 341 343 344 343 341 340 340 341 341 341 342 343 345 347 350 351 345 342 339 336 340 339 334 334 335 334 331 329 327 325 323 321 318 315 311 307 306 303 301 300 296 292 288 284 281 277 275 273 273 273 270 267 263 258 255 255 256 255 255 257 256 254 249 242
269 271 274 279 284 289 296 301 305 307 311 312 313 313 313 314 315 316 318 320 322 324 328 334 338 341 342 342 341 340 341 341 341 341 342 343 346 347 351 353 344 342 341 337 339 340 337 337 337 335 334 332 329 326 325 325 323 319 314 312 310 307 304 302 298 295 292 289 285 280 277 274 272 272 271 267 260 256 252 251 253 255 254 254 256 256 253 247
267 269 272 277 282 287 294 300 302 305 308 309 309 310 312 313 314 315 317 319 321 323 326 331 335 339 341 342 341 341 342 341 340 341 342 344 346 348 350 350 341 339 340 340 340 339 337 338 340 339 336 334 332 332 333 332 329 324 319 315 312 309 308 305 300 298 294 292 289 284 280 276 272 271 270 264 258 254 251 250 251 253 253 251 252 255 255 252
265 267 271 276 281 286 293 297 300 303 306 307 307 308 310 311 313 314 316 319 321 323 325 328 333 338 340 341 341 340 341 341 340 340 342 345 347 347 348 345 338 337 340 342 340 337 338 342 343 341 339 339 340 339 338 336 332 327 322 317 314 314 313 309 304 300 295 293 290 286 283 278 273 271 268 262 257 254 252 252 251 251 254 253 252 253 254 254
264 266 270 274 280 285 291 295 298 302 304 305 305 306 308 310 312 313 315 317 319 322 323 327 332 337 339 340 340 341 342 341 340 340 342 346 347 347 345 341 336 336 338 340 341 340 341 344 345 343 344 344 343 342 340 338 334 329 323 319 317 317 316 313 308 303 297 294 293 288 284 281 276 271 268 262 256 255 254 253 251 251 253 256 256 254 253 253
263 265 268 273 279 284 289 293 297 299 301 303 304 305 306 308 310 311 313 314 317 320 322 326 331 335 337 338 340 342 342 341 340 340 342 345 347 346 343 336 330 331 334 338 344 343 340 343 346 346 346 345 344 343 342 341 337 331 326 323 322 320 318 316 312 306 299 296 296 291 286 284 278 271 265 262 257 256 257 255 254 253 254 256 258 257 254 253
262 264 267 272 277 282 287 291 295 297 298 301 303 304 304 306 309 310 311 313 316 319 321 325 329 333 336 337 340 342 342 341 339 339 341 344 347 346 342 335 328 328 334 340 343 343 340 343 347 347 346 346 345 344 343 343 341 336 331 328 326 323 320 319 314 308 302 298 297 291 288 286 278 270 266 263 261 259 258 257 256 256 257 258 259 257 255 252
260 262 266 271 276 281 285 289 292 294 296 299 302 304 304 305 307 309 310 311 315 318 320 324 327 331 334 335 339 342 342 341 339 338 340 343 346 346 342 335 328 327 333 338 340 343 343 343 345 345 346 346 345 344 344 344 344 341 337 333 329 325 322 321 317 312 308 307 303 293 288 286 275 269 268 266 264 261 258 257 258 260 261 262 261 258 254 252
259 261 264 269 274 279 283 286 289 292 294 298 301 304 304 304 306 308 309 310 313 316 319 322 325 329 333 334 338 341 341 341 339 338 339 342 345 346 343 336 328 326 331 337 339 342 344 342 342 344 345 346 345 345 344 345 345 344 342 339 334 328 324 322 319 315 313 313 308 296 290 287 276 268 266 266 266 263 259 260 261 261 260 261 260 256 253 250
258 260 264 268 273 277 281 284 287 290 292 296 300 302 303 304 305 306 308 309 311 314 318 321 324 328 331 333 337 340 341 341 339 337 338 340 343 346 344 337 329 326 329 335 337 338 342 342 342 343 345 345 345 346 345 345 346 345 345 344 339 334 330 326 321 318 318 316 310 300 293 288 276 268 268 265 264 263 262 261 261 261 261 262 260 255 252 251
257 259 263 267 271 275 278 282 285 288 290 295 298 300 302 303 304 305 307 308 310 313 316 318 322 326 330 333 335 337 340 340 338 337 337 338 342 345 344 338 330 325 326 330 332 335 340 343 341 342 344 345 345 346 345 346 347 346 346 346 343 339 335 332 326 322 321 319 316 307 294 286 279 275 275 269 265 265 263 260 259 259 261 261 257 253 254 255
256 258 262 266 269 273 276 280 284 286 289 293 296 299 301 302 303 304 306 307 308 311 313 316 321 325 328 332 334 336 339 340 338 337 336 337 341 344 344 340 332 326 326 327 330 335 340 342 342 342 343 344 344 345 346 347 347 347 347 347 346 340 336 335 331 326 326 324 321 310 290 285 286 285 283 274 269 266 263 262 259 257 258 258 255 253 256 258
255 257 261 264 268 271 274 278 282 284 287 291 294 297 300 301 302 303 304 306 308 310 312 315 320 324 327 330 332 334 337 339 338 336 336 336 339 343 344 342 334 325 324 327 331 336 338 340 342 341 342 343 345 346 348 348 348 347 346 346 346 341 337 337 334 330 329 327 321 308 290 286 290 293 289 278 272 266 261 260 261 262 264 264 260 255 257 259
254 256 259 263 266 269 273 277 280 282 286 289 293 296 298 299 301 302 303 305 307 309 311 313 317 322 325 328 331 333 336 338 338 336 336 335 337 341 343 343 338 329 325 327 330 334 336 338 339 339 340 343 346 347 349 348 348 348 346 346 346 343 340 339 335 331 332 330 322 310 298 293 297 301 289 278 275 272 266 263 266 271 272 271 267 261 259 260
254 256 259 262 265 267 271 275 278 281 284 288 292 294 296 298 299 301 303 304 305 307 308 311 315 320 323 326 330 333 334 336 337 335 335 335 336 339 340 342 341 333 326 324 324 327 333 336 337 338 340 343 347 347 349 349 348 348 347 345 345 344 343 341 337 333 334 333 322 313 307 303 308 309 294 287 286 283 278 273 274 277 277 275 272 267 262 258
254 256 258 261 263 266 270 273 276 279 283 286 290 292 294 295 297 300 302 302 303 306 307 308 312 316 320 323 327 331 332 334 335 335 334 334 335 338 338 338 341 336 327 322 322 326 333 336 336 337 339 343 346 347 347 348 348 348 347 346 345 345 345 344 340 336 337 335 326 319 315 313 315 313 305 301 297 292 287 284 281 280 278 276 271 266 261 258
254 256 258 261 263 265 268 271 274 278 281 284 287 290 292 293 297 300 299 300 302 304 304 305 308 312 317 320 324 328 331 332 333 333 333 333 334 336 335 335 340 341 336 331 329 330 332 334 335 336 340 344 344 345 346 348 349 349 348 347 346 345 346 346 343 339 340 339 332 326 322 318 317 315 313 311 305 297 293 292 289 284 278 270 263 259 259 261
254 256 257 260 262 264 268 271 274 276 280 283 286 288 290 293 297 298 296 297 300 302 302 303 306 311 314 317 319 325 328 330 331 331 331 332 333 335 335 334 337 341 341 338 335 331 329 332 338 339 342 344 343 344 347 348 350 350 349 349 348 346 346 347 344 342 345 346 336 330 326 320 316 316 316 315 312 305 301 299 295 290 281 268 258 254 256 260
254 256 257 260 261 264 267 270 272 275 278 281 284 287 290 294 297 297 296 297 298 300 301 302 305 309 312 313 316 321 326 327 328 330 330 330 331 333 334 333 335 339 342 340 340 339 333 334 342 343 342 343 344 345 347 348 350 351 351 351 350 349 347 347 346 343 346 350 343 335 331 324 319 320 319 317 315 310 309 308 303 298 289 274 262 253 251 252
254 255 257 259 261 263 267 269 272 275 277 280 282 286 291 294 296 296 296 296 297 298 299 301 304 307 309 311 313 318 322 324 325 327 329 329 330 332 332 332 333 337 341 341 341 345 340 336 340 343 342 343 344 345 347 348 349 352 353 352 352 351 349 348 348 345 345 348 345 338 334 329 326 325 325 323 319 316 318 321 317 312 305 291 275 253 241 236
254 255 256 259 261 263 265 268 271 274 277 279 282 286 291 293 294 295 294 294 296 297 298 299 302 305 306 307 311 315 318 321 322 325 328 328 329 330 330 331 332 334 340 342 340 343 345 339 338 340 341 342 344 346 347 348 351 353 354 354 353 353 351 349 349 348 348 350 350 347 343 341 339 335 332 332 330 330 337 341 341 340 330 305 289 249 221 210
253 254 256 257 259 262 265 267 270 273 276 278 282 287 290 291 293 292 292 294 296 296 296 298 300 303 304 304 307 312 315 317 320 323 326 327 327 329 329 329 330 332 337 342 340 340 345 342 335 334 337 341 345 346 346 348 353 355 355 355 355 356 354 351 350 351 353 357 358 358 357 354 350 347 344 344 347 353 354 354 357 4 4 316 275 201 179 176
252 253 254 256 259 261 264 267 270 272 274 277 283 287 288 289 291 290 290 294 296 296 296 297 299 301 302 303 305 309 312 314 316 321 324 325 326 328 328 328 328 331 335 339 341 339 342 346 339 334 337 342 345 347 347 349 354 356 357 357 357 358 358 355 353 354 356 360 360 359 356 348 347 353 359 4 11 15 9 4 5 17 49 80 126 145 148 152
251 252 254 256 259 261 264 266 269 271 274 279 284 285 286 288 288 288 290 292 294 295 295 296 298 301 301 302 304 307 311 312 314 318 321 323 326 327 326 327 328 329 332 336 339 338 340 346 347 340 339 342 344 346 348 351 355 358 359 359 360 2 2 0 359 358 358 359 355 351 348 345 351 5 16 19 21 21 15 11 20 55 89 93 95 110 127 138
250 252 254 256 258 260 263 266 268 271 275 280 282 283 285 287 287 286 287 290 292 293 294 295 297 299 300 301 302 305 308 310 311 315 319 322 325 325 325 327 327 327 330 333 336 337 337 342 349 348 343 343 344 346 349 352 357 1 1 360 2 5 6 7 7 5 3 1 357 353 355 1 13 27 30 25 22 21 28 50 69 84 95 94 92 106 125 134
250 252 253 255 257 260 263 265 267 270 274 278 280 283 285 285 284 284 284 288 290 291 292 294 295 296 297 299 301 302 305 308 309 311 315 319 322 323 323 325 326 326 328 331 333 335 335 340 350 352 348 347 347 346 349 354 358 1 2 2 3 6 7 11 15 15 12 9 6 7 17 28 37 42 38 33 28 32 56 81 83 86 98 108 115 123 131 135
249 251 253 255 258 260 262 263 265 269 273 278 281 282 282 282 282 282 284 286 288 288 290 291 293 295 296 297 299 300 301 304 306 308 312 316 318 320 321 323 324 324 326 329 331 333 334 338 348 354 351 348 348 349 351 354 358 1 2 3 5 7 7 9 16 23 27 27 24 26 35 46 49 49 49 51 56 65 76 80 80 88 107 119 122 126 135 137
248 250 253 255 257 258 260 262 265 270 274 277 279 278 279 280 280 281 283 284 285 286 288 290 292 294 295 296 297 297 298 300 303 305 308 311 315 317 319 321 322 323 324 326 329 331 332 336 344 353 355 349 347 352 355 356 358 360 2 4 6 7 7 8 13 22 30 37 40 41 45 49 50 53 61 69 75 78 79 79 82 92 112 121 118 126 142 142
247 250 253 254 255 257 259 263 266 270 273 275 276 276 277 278 279 280 282 282 282 284 287 290 292 293 294 295 295 296 296 297 300 302 303 307 312 316 318 320 321 321 322 324 327 330 331 335 341 348 356 357 353 355 359 359 359 360 1 4 7 8 7 7 10 15 23 33 42 47 50 51 53 61 71 75 75 75 78 82 85 95 116 125 116 122 145 149
247 250 251 253 255 257 260 264 267 268 271 273 274 274 275 276 277 279 279 280 281 284 287 289 290 291 293 294 294 295 294 295 298 299 300 304 309 313 316 318 319 319 320 322 325 328 329 333 339 344 352 357 355 355 358 359 0 1 1 4 8 8 7 7 8 10 15 23 31 42 50 52 55 63 68 74 79 78 81 87 90 99 115 123 109 112 144 155
247 249 250 252 255 259 262 264 265 267 269 271 271 272 273 274 275 276 278 280 281 284 285 286 288 291 292 292 293 294 294 294 295 297 299 302 305 309 313 317 318 318 319 320 322 326 327 331 337 340 346 353 353 353 357 359 0 2 1 4 9 9 7 8 8 9 12 14 18 27 37 42 49 58 63 77 82 72 77 93 98 104 110 108 101 109 138 153
247 248 251 254 256 259 260 262 264 266 267 267 268 269 270 272 273 275 278 278 279 281 282 284 288 289 290 290 292 294 293 292 292 295 297 298 302 305 309 314 316 317 317 317 320 323 326 331 337 336 340 350 353 353 357 359 0 1 1 4 9 10 8 8 9 11 11 12 17 23 28 35 46 57 63 75 67 54 67 92 99 106 110 106 110 122 136 145
247 249 251 253 255 258 260 262 263 264 264 264 265 267 269 271 272 274 276 276 277 279 280 283 286 286 287 288 291 293 291 288 290 293 293 294 298 302 305 311 315 317 317 316 318 322 324 330 337 334 336 347 354 354 357 360 0 1 2 5 9 11 10 9 9 14 15 15 21 30 34 41 54 67 71 68 58 58 72 88 97 109 110 104 113 126 133 140
247 249 251 253 256 258 260 261 261 262 263 263 263 265 268 269 271 273 274 275 276 276 277 282 284 284 284 286 289 290 287 286 289 290 288 290 295 299 301 307 313 317 317 315 317 320 322 327 334 334 334 343 354 356 357 0 1 360 1 6 8 10 12 11 9 14 19 21 26 35 42 46 52 67 78 69 65 75 81 85 95 104 104 105 115 125 130 137
248 249 250 253 255 257 259 259 260 260 260 260 261 265 268 269 270 270 270 272 274 274 277 282 282 281 282 285 287 286 284 286 288 284 283 286 292 296 299 304 310 315 316 314 315 317 320 324 330 333 335 340 350 356 357 0 1 360 2 6 8 9 13 14 11 12 19 24 27 34 43 46 47 64 82 79 85 91 88 87 97 100 101 105 113 121 128 135
247 249 250 252 254 256 257 258 259 259 258 259 263 266 268 268 267 266 267 270 273 276 278 278 277 278 282 284 285 283 283 285 283 278 278 282 287 292 295 300 308 314 314 313 313 314 317 321 326 330 333 338 346 353 358 2 1 359 2 6 7 8 11 14 14 13 16 24 27 30 35 39 45 65 84 86 92 96 92 93 98 98 101 106 112 118 125 132
247 248 250 252 253 254 255 256 257 258 259 261 264 265 266 266 265 266 267 269 272 274 275 275 277 279 282 282 281 281 282 282 277 275 275 277 282 287 289 294 303 310 313 313 311 312 315 318 321 326 330 335 342 350 358 4 2 1 4 5 5 7 9 12 15 16 16 19 25 28 30 32 39 53 73 82 86 90 93 96 96 95 103 110 114 120 125 132
Height
5870 5869 5868 5868 5867 5867 5866 5866 5865 5864 5863 5862 5861 5860 5858 5857 5855 5854 5852 5851 5849 5848 5846 5844 5841 5839 5837 5835 5833 5831 5828 5826 5824 5821 5819 5818 5816 5815 5813 5811 5809 5808 5806 5805 5803 5802 5800 5798 5797 5796 5794 5793 5792 5791 5791 5790 5790 5789 5789 5788 5787 5787 5787 5787 5787 5787 5788 5789 5790 5792 5793 5793 5793 5794 5797 5799 5798 5799 5800 5800 5803 5803 5804 5805 5806 5809 5811 5811
5869 5868 5867 5867 5866 5865 5865 5865 5864 5863 5862 5861 5860 5859 5857 5856 5854 5853 5851 5850 5848 5847 5845 5843 5840 5838 5836 5834 5832 5830 5827 5825 5822 5820 5818 5816 5814 5813 5811 5809 5807 5805 5804 5802 5800 5799 5797 5795 5793 5792 5791 5789 5789 5788 5787 5786 5786 5785 5785 5784 5784 5783 5783 5783 5783 5783 5784 5784 5784 5786 5788 5789 5788 5788 5790 5793 5794 5794 5795 5796 5799 5799 5800 5801 5803 5805 5807 5809
5867 5866 5866 5866 5865 5864 5864 5864 5863 5862 5861 5860 5859 5858 5856 5855 5853 5852 5850 5849 5847 5846 5844 5842 5839 5837 5835 5833 5831 5828 5826 5824 5821 5818 5816 5814 5813 5811 5809 5807 5805 5803 5801 5799 5797 5795 5793 5792 5790 5788 5787 5786 5785 5784 5783 5783 5782 5781 5781 5781 5780 5780 5779 5779 5780 5780 5779 5779 5779 5780 5782 5784 5784 5784 5785 5787 5789 5790 5790 5792 5793 5793 5796 5797 5799 5802 5804 5805
5866 5865 5865 5864 5864 5863 5863 5862 5862 5861 5860 5859 5858 5857 5855 5854 5852 5851 5849 5848 5846 5844 5843 5841 5838 5836 5834 5832 5830 5828 5825 5822 5820 5817 5815 5813 5811 5809 5807 5805 5802 5800 5798 5796 5794 5792 5790 5788 5787 5785 5785 5784 5783 5782 5781 5780 5780 5779 5778 5778 5777 5777 5776 5775 5776 5776 5775 5774 5774 5775 5776 5778 5779 5780 5780 5781 5783 5786 5785 5786 5787 5788 5791 5794 5795 5797 5799 5802
5865 5864 5864 5863 5862 5862 5862 5861 5861 5860 5859 5858 5857 5856 5854 5853 5851 5850 5848 5847 5845 5843 5842 5840 5837 5835 5833 5831 5829 5827 5824 5822 5819 5816 5813 5811 5809 5807 5805 5803 5800 5798 5795 5793 5791 5789 5787 5786 5785 5783 5783 5782 5781 5781 5780 5779 5779 5778 5777 5776 5775 5774 5774 5773 5773 5773 5771 5770 5770 5770 5770 5771 5773 5774 5775 5776 5779 5781 5780 5780 5782 5783 5786 5790 5792 5793 5795 5797
5864 5863 5862 5861 5861 5861 5860 5860 5859 5859 5858 5857 5856 5855 5853 5852 5850 5849 5847 5846 5844 5842 5840 5838 5836 5834 5831 5829 5827 5825 5823 5820 5818 5815 5812 5809 5807 5805 5802 5800 5798 5795 5793 5791 5789 5787 5786 5784 5783 5782 5781 5780 5779 5779 5778 5777 5777 5776 5775 5774 5773 5772 5771 5770 5770 5770 5768 5766 5766 5765 5766 5766 5767 5768 5768 5770 5773 5775 5774 5774 5776 5777 5780 5784 5787 5788 5790 5792
5862 5861 5861 5860 5859 5859 5859 5858 5858 5858 5857 5856 5855 5854 5852 5851 5849 5848 5846 5845 5843 5841 5839 5837 5835 5832 5830 5828 5826 5824 5821 5819 5817 5814 5811 5808 5805 5803 5800 5797 5795 5793 5790 5789 5787 5786 5785 5784 5783 5781 5780 5779 5778 5777 5776 5775 5774 5774 5772 5771 5771 5769 5768 5767 5766 5766 5765 5764 5762 5761 5762 5762 5761 5762 5762 5765 5767 5767 5767 5768 5770 5771 5774 5777 5780 5781 5784 5787
5861 5860 5859 5858 5858 5858 5857 5857 5857 5856 5856 5854 5853 5852 5851 5850 5848 5846 5845 5844 5842 5840 5838 5836 5834 5831 5829 5827 5825 5823 5820 5818 5815 5813 5810 5807 5804 5802 5799 5796 5793 5790 5788 5787 5786 5785 5784 5783 5782 5781 5779 5778 5777 5776 5774 5773 5772 5771 5769 5768 5767 5765 5764 5763 5762 5762 5760 5760 5758 5758 5758 5758 5757 5756 5758 5761 5760 5759 5760 5761 5763 5765 5767 5770 5773 5775 5778 5780
5859 5858 5857 5857 5856 5856 5856 5856 5855 5855 5854 5853 5852 5851 5850 5849 5847 5845 5844 5842 5841 5839 5837 5835 5833 5830 5828 5826 5824 5822 5819 5817 5814 5812 5809 5806 5803 5800 5798 5794 5792 5789 5787 5786 5785 5784 5783 5783 5781 5780 5778 5777 5775 5774 5772 5771 5770 5768 5767 5766 5764 5762 5760 5759 5758 5756 5755 5755 5754 5754 5754 5754 5752 5750 5755 5758 5754 5752 5753 5754 5756 5758 5761 5764 5766 5769 5772 5774
5858 5857 5856 5855 5854 5854 5854 5854 5854 5853 5853 5852 5851 5850 5849 5847 5846 5844 5842 5841 5840 5838 5836 5834 5831 5829 5827 5825 5823 5821 5818 5816 5813 5811 5808 5805 5802 5799 5796 5793 5790 5788 5786 5785 5784 5784 5783 5781 5780 5778 5777 5775 5773 5771 5769 5767 5766 5764 5763 5762 5760 5758 5757 5755 5753 5751 5750 5750 5748 5748 5749 5750 5747 5745 5751 5753 5747 5746 5747 5748 5750 5751 5754 5757 5760 5763 5766 5768
5856 5855 5854 5853 5853 5853 5853 5852 5852 5852 5851 5850 5849 5848 5847 5846 5844 5843 5841 5840 5839 5837 5835 5833 5830 5828 5826 5824 5821 5819 5817 5815 5812 5809 5806 5803 5801 5797 5794 5792 5789 5787 5785 5784 5783 5782 5781 5780 5778 5776 5775 5773 5771 5769 5767 5764 5762 5760 5759 5758 5756 5754 5752 5750 5748 5747 5745 5744 5742 5741 5744 5746 5742 5741 5745 5744 5741 5741 5742 5743 5744 5746 5748 5749 5752 5755 5758 5762
5854 5853 5853 5852 5851 5851 5851 5851 5850 5850 5850 5849 5848 5847 5846 5845 5843 5841 5840 5839 5837 5836 5834 5832 5829 5827 5824 5822 5820 5818 5816 5813 5811 5808 5805 5802 5799 5796 5793 5790 5787 5785 5784 5783 5782 5780 5779 5778 5776 5773 5772 5770 5768 5765 5763 5761 5759 5756 5755 5753 5751 5749 5747 5746 5744 5742 5740 5739 5737 5736 5738 5740 5737 5735 5736 5736 5735 5736 5737 5738 5738 5739 5741 5743 5745 5747 5751 5754
5852 5852 5851 5850 5850 5850 5850 5849 5849 5849 5848 5847 5846 5845 5845 5843 5842 5840 5839 5837 5836 5835 5833 5830 5828 5825 5823 5821 5819 5817 5814 5812 5810 5807 5804 5801 5798 5794 5791 5788 5786 5784 5783 5782 5781 5779 5778 5776 5773 5771 5769 5767 5765 5762 5760 5758 5755 5753 5750 5748 5747 5745 5742 5741 5739 5737 5735 5733 5731 5729 5731 5735 5733 5730 5729 5729 5730 5729 5730 5732 5732 5733 5734 5736 5738 5740 5743 5746
5851 5850 5849 5848 5848 5848 5848 5848 5847 5847 5846 5846 5845 5844 5843 5842 5840 5839 5837 5836 5835 5833 5831 5829 5827 5824 5822 5820 5818 5815 5813 5811 5808 5806 5802 5799 5796 5793 5790 5787 5785 5783 5782 5781 5780 5778 5776 5774 5772 5769 5766 5764 5762 5760 5757 5754 5752 5749 5746 5744 5742 5740 5738 5736 5734 5732 5729 5727 5725 5722 5724 5729 5728 5724 5722 5723 5724 5723 5724 5725 5726 5727 5727 5729 5731 5733 5736 5738
5849 5848 5847 5847 5846 5846 5846 5846 5846 5845 5845 5844 5843 5842 5842 5840 5839 5837 5836 5835 5833 5832 5830 5828 5825 5823 5821 5819 5817 5814 5812 5810 5808 5805 5801 5798 5795 5791 5788 5785 5784 5783 5782 5780 5779 5777 5775 5772 5770 5767 5765 5762 5760 5757 5754 5751 5748 5746 5743 5740 5737 5734 5732 5731 5729 5727 5723 5721 5720 5716 5716 5721 5721 5717 5714 5716 5718 5718 5718 5718 5719 5721 5721 5723 5725 5726 5729 5731
5847 5846 5846 5845 5845 5844 5845 5844 5844 5844 5843 5842 5841 5841 5840 5839 5837 5836 5834 5833 5832 5831 5829 5826 5824 5822 5820 5818 5816 5814 5811 5809 5807 5804 5801 5797 5794 5790 5787 5784 5783 5782 5781 5779 5777 5776 5773 5771 5768 5766 5763 5760 5757 5755 5752 5749 5744 5741 5738 5735 5732 5729 5727 5725 5723 5720 5717 5715 5713 5710 5709 5713 5714 5710 5707 5709 5711 5711 5712 5712 5712 5714 5716 5717 5718 5720 5722 5724
5845 5845 5844 5844 5843 5843 5843 5843 5842 5842 5841 5841 5840 5839 5838 5837 5836 5834 5833 5832 5831 5829 5827 5825 5823 5821 5819 5817 5814 5813 5810 5808 5805 5803 5800 5797 5794 5790 5786 5784 5782 5781 5780 5778 5776 5774 5772 5769 5767 5764 5761 5758 5755 5751 5748 5745 5741 5737 5734 5731 5728 5725 5722 5720 5717 5714 5711 5708 5706 5704 5703 5706 5707 5702 5700 5701 5703 5704 5706 5707 5706 5707 5710 5711 5712 5713 5716 5718
5843 5843 5842 5842 5841 5841 5841 5841 5841 5840 5840 5839 5838 5837 5837 5836 5834 5833 5831 5830 5829 5828 5826 5824 5822 5819 5817 5815 5813 5811 5809 5807 5804 5802 5799 5796 5793 5789 5786 5783 5781 5780 5780 5778 5775 5773 5771 5769 5765 5762 5759 5755 5752 5747 5743 5739 5736 5733 5730 5727 5724 5721 5718 5715 5712 5709 5706 5702 5699 5698 5699 5700 5699 5695 5693 5694 5695 5697 5699 5700 5701 5701 5703 5705 5706 5707 5710 5712
5841 5841 5840 5840 5839 5839 5839 5839 5839 5839 5838 5837 5836 5835 5835 5834 5833 5832 5829 5828 5827 5826 5824 5822 5820 5818 5815 5814 5812 5810 5808 5806 5803 5801 5798 5795 5791 5788 5785 5783 5781 5779 5777 5776 5774 5771 5769 5766 5763 5760 5757 5753 5748 5745 5741 5737 5733 5729 5726 5722 5719 5717 5714 5711 5707 5704 5700 5697 5694 5692 5693 5694 5692 5689 5688 5689 5688 5689 5692 5694 5695 5696 5696 5697 5700 5701 5703 5706
5839 5839 5838 5838 5837 5837 5838 5837 5837 5837 5836 5835 5834 5834 5833 5833 5832 5831 5828 5827 5826 5825 5823 5821 5818 5816 5814 5812 5810 5808 5806 5804 5802 5800 5797 5793 5790 5787 5784 5782 5780 5778 5776 5775 5772 5768 5766 5764 5762 5758 5754 5750 5746 5743 5739 5735 5731 5726 5722 5719 5715 5713 5709 5706 5703 5699 5695 5691 5689 5687 5686 5687 5686 5684 5682 5682 5682 5683 5685 5687 5688 5690 5690 5691 5693 5695 5697 5699
5837 5837 5836 5836 5836 5836 5836 5835 5835 5835 5834 5833 5832 5832 5831 5831 5830 5829 5828 5826 5825 5823 5821 5819 5817 5815 5813 5811 5809 5807 5805 5803 5801 5799 5796 5792 5789 5786 5784 5781 5779 5777 5775 5773 5770 5767 5764 5762 5759 5755 5752 5748 5745 5741 5737 5733 5729 5724 5719 5715 5712 5708 5705 5702 5698 5694 5690 5685 5684 5682 5680 5681 5681 5678 5676 5676 5676 5678 5678 5679 5681 5682 5684 5685 5686 5688 5690 5691
5834 5834 5834 5834 5834 5834 5834 5834 5834 5833 5832 5831 5830 5830 5830 5829 5828 5828 5826 5824 5823 5822 5820 5818 5815 5813 5811 5810 5808 5806 5804 5802 5800 5798 5795 5791 5788 5785 5783 5781 5778 5776 5773 5771 5769 5766 5763 5760 5757 5754 5751 5747 5743 5740 5736 5732 5727 5722 5717 5713 5709 5705 5701 5698 5694 5689 5685 5681 5679 5677 5674 5675 5675 5672 5670 5669 5669 5672 5672 5671 5674 5675 5676 5679 5680 5681 5682 5683
5832 5832 5832 5832 5832 5832 5832 5831 5831 5831 5830 5829 5828 5828 5828 5827 5827 5826 5825 5823 5821 5820 5818 5816 5814 5812 5810 5808 5807 5804 5802 5801 5799 5797 5794 5790 5787 5784 5781 5779 5776 5774 5772 5770 5767 5765 5761 5758 5755 5753 5749 5745 5741 5737 5733 5729 5725 5720 5715 5710 5706 5702 5697 5694 5690 5684 5679 5676 5674 5671 5668 5670 5670 5666 5664 5662 5662 5665 5664 5664 5667 5668 5670 5671 5673 5673 5674 5676
5830 5830 5830 5830 5830 5830 5829 5829 5829 5829 5828 5827 5827 5826 5826 5825 5824 5824 5823 5822 5820 5818 5816 5815 5812 5810 5809 5807 5805 5803 5801 5799 5798 5795 5793 5789 5786 5783 5780 5778 5775 5772 5770 5768 5765 5763 5760 5757 5754 5751 5748 5744 5740 5736 5731 5727 5723 5717 5713 5708 5703 5698 5693 5689 5685 5680 5675 5671 5668 5664 5662 5665 5665 5661 5659 5657 5655 5657 5658 5658 5660 5662 5662 5663 5664 5665 5667 5668
5827 5827 5827 5827 5827 5827 5827 5827 5827 5827 5826 5825 5825 5824 5824 5823 5822 5821 5821 5820 5818 5816 5815 5813 5811 5809 5808 5806 5804 5802 5800 5798 5796 5794 5791 5788 5785 5782 5779 5776 5774 5771 5768 5766 5764 5761 5759 5756 5753 5750 5746 5742 5738 5734 5729 5724 5720 5715 5710 5705 5699 5694 5689 5684 5679 5674 5671 5668 5663 5658 5655 5658 5659 5656 5654 5652 5650 5650 5651 5651 5653 5654 5654 5655 5656 5658 5659 5659
5824 5824 5824 5825 5825 5825 5825 5825 5825 5824 5824 5823 5823 5822 5822 5821 5820 5819 5819 5818 5817 5815 5813 5811 5809 5808 5806 5805 5803 5801 5799 5797 5795 5793 5791 5787 5784 5781 5778 5775 5772 5770 5767 5764 5762 5760 5758 5755 5752 5748 5744 5741 5736 5733 5728 5722 5717 5711 5706 5701 5695 5689 5684 5680 5675 5670 5666 5662 5659 5654 5648 5649 5652 5652 5649 5646 5645 5645 5645 5644 5646 5647 5647 5648 5649 5650 5650 5650
5821 5822 5822 5822 5822 5822 5822 5822 5822 5822 5822 5821 5821 5820 5819 5819 5818 5817 5816 5816 5815 5813 5811 5809 5808 5806 5804 5803 5801 5799 5798 5796 5794 5792 5790 5786 5783 5780 5777 5774 5771 5768 5765 5762 5760 5758 5755 5752 5749 5746 5743 5739 5735 5731 5726 5720 5714 5708 5703 5698 5692 5686 5680 5676 5671 5666 5661 5657 5654 5649 5643 5640 5645 5648 5644 5640 5640 5640 5638 5637 5638 5639 5639 5640 5641 5641 5641 5641
5818 5819 5819 5819 5820 5820 5820 5820 5820 5820 5819 5819 5818 5818 5817 5816 5816 5815 5814 5813 5813 5811 5809 5807 5806 5804 5802 5800 5799 5798 5796 5794 5792 5790 5788 5785 5782 5780 5777 5775 5771 5768 5764 5761 5757 5755 5753 5750 5747 5745 5742 5738 5733 5729 5724 5718 5712 5707 5700 5695 5690 5684 5678 5673 5668 5663 5658 5653 5648 5643 5638 5635 5638 5643 5639 5635 5634 5633 5631 5630 5631 5632 5632 5633 5633 5633 5633 5631
5815 5816 5816 5816 5817 5817 5817 5818 5818 5817 5817 5817 5816 5815 5815 5814 5813 5813 5812 5811 5811 5809 5807 5806 5804 5802 5801 5799 5797 5796 5794 5792 5791 5789 5787 5784 5781 5778 5776 5774 5771 5768 5764 5760 5756 5754 5751 5748 5745 5743 5740 5736 5732 5727 5722 5716 5711 5705 5698 5692 5687 5682 5676 5670 5665 5660 5655 5650 5643 5639 5635 5631 5633 5637 5633 5629 5628 5626 5626 5625 5625 5625 5624 5623 5623 5624 5624 5620
5812 5812 5813 5814 5814 5814 5815 5815 5815 5815 5814 5814 5814 5813 5812 5812 5811 5811 5810 5809 5808 5808 5806 5804 5802 5800 5799 5798 5796 5794 5792 5791 5789 5787 5785 5783 5779 5777 5775 5773 5771 5767 5764 5761 5757 5754 5751 5748 5744 5741 5738 5734 5730 5725 5720 5716 5710 5704 5697 5690 5684 5679 5673 5667 5662 5656 5651 5646 5640 5636 5633 5629 5628 5630 5628 5625 5623 5621 5620 5620 5620 5618 5615 5614 5612 5612 5613 5610
5808 5809 5810 5810 5811 5812 5812 5812 5812 5812 5812 5812 5811 5810 5810 5809 5810 5809 5807 5806 5806 5806 5804 5802 5800 5798 5797 5796 5795 5793 5791 5789 5788 5786 5784 5781 5779 5776 5774 5772 5771 5768 5765 5763 5758 5753 5750 5747 5744 5740 5736 5732 5728 5723 5719 5714 5708 5702 5694 5686 5680 5675 5671 5665 5658 5652 5645 5640 5636 5633 5630 5627 5624 5624 5623 5621 5619 5616 5614 5613 5612 5610 5607 5605 5601 5600 5600 5600
5805 5806 5807 5807 5808 5809 5809 5809 5809 5809 5809 5809 5808 5808 5807 5807 5808 5807 5805 5803 5803 5803 5802 5800 5798 5797 5795 5794 5793 5791 5790 5788 5786 5784 5782 5780 5777 5775 5773 5771 5769 5767 5764 5761 5758 5754 5749 5747 5743 5739 5735 5729 5725 5721 5717 5712 5706 5699 5692 5684 5676 5669 5665 5661 5654 5648 5642 5636 5632 5629 5627 5624 5621 5620 5618 5616 5614 5611 5608 5605 5603 5600 5597 5594 5593 5590 5588 5590
5802 5803 5803 5804 5805 5806 5806 5806 5806 5806 5806 5806 5806 5805 5805 5805 5805 5805 5803 5802 5801 5800 5799 5798 5796 5794 5793 5792 5791 5790 5788 5787 5785 5783 5781 5778 5776 5774 5772 5769 5767 5764 5761 5758 5756 5753 5748 5745 5742 5736 5732 5728 5723 5719 5714 5709 5704 5698 5691 5682 5673 5664 5658 5654 5648 5642 5639 5635 5630 5627 5624 5622 5619 5617 5613 5611 5608 5604 5601 5597 5592 5589 5586 5584 5583 5582 5581 5583
5798 5799 5800 5801 5802 5802 5803 5803 5803 5803 5803 5803 5803 5803 5803 5803 5803 5802 5801 5800 5799 5798 5797 5795 5794 5793 5791 5790 5788 5787 5786 5785 5784 5782 5779 5777 5775 5773 5771 5769 5766 5763 5760 5756 5753 5751 5746 5741 5739 5735 5730 5727 5723 5718 5713 5708 5703 5697 5690 5682 5674 5666 5657 5651 5644 5637 5634 5633 5630 5625 5622 5619 5616 5614 5610 5606 5603 5598 5593 5589 5584 5580 5577 5575 5574 5575 5576 5577
5795 5796 5797 5798 5799 5799 5799 5799 5799 5799 5800 5800 5800 5800 5801 5801 5800 5799 5798 5797 5797 5796 5794 5793 5792 5791 5790 5788 5786 5785 5784 5783 5782 5780 5778 5775 5774 5771 5769 5767 5765 5762 5759 5755 5752 5751 5747 5740 5737 5735 5731 5727 5723 5719 5713 5708 5703 5697 5690 5682 5674 5667 5659 5653 5646 5638 5632 5630 5628 5624 5620 5616 5613 5611 5607 5603 5599 5593 5588 5584 5579 5575 5572 5570 5569 5570 5571 5572
5791 5792 5793 5794 5795 5796 5796 5796 5796 5796 5796 5796 5797 5798 5799 5798 5797 5796 5795 5795 5795 5794 5792 5790 5790 5789 5788 5787 5785 5783 5782 5781 5780 5779 5777 5774 5772 5770 5768 5766 5764 5761 5758 5754 5750 5749 5748 5742 5737 5735 5731 5726 5723 5718 5713 5708 5702 5695 5689 5681 5674 5667 5659 5652 5646 5640 5633 5628 5625 5621 5617 5614 5612 5610 5606 5600 5595 5590 5586 5582 5578 5575 5573 5570 5567 5567 5567 5569
5787 5788 5789 5790 5791 5792 5792 5792 5792 5792 5793 5793 5794 5796 5797 5795 5794 5793 5792 5792 5792 5791 5789 5788 5787 5787 5785 5785 5784 5782 5780 5779 5778 5777 5775 5773 5771 5770 5767 5765 5763 5761 5757 5754 5750 5746 5746 5744 5739 5735 5731 5727 5722 5718 5714 5708 5701 5695 5689 5682 5675 5668 5661 5651 5643 5638 5633 5629 5625 5620 5616 5613 5611 5609 5604 5599 5594 5590 5587 5583 5580 5578 5576 5573 5570 5569 5570 5572
5783 5784 5785 5786 5787 5788 5788 5788 5788 5789 5789 5790 5792 5794 5793 5792 5792 5790 5789 5789 5789 5787 5786 5785 5784 5784 5783 5782 5782 5781 5778 5777 5776 5775 5773 5772 5770 5768 5766 5764 5762 5760 5757 5754 5751 5746 5744 5743 5739 5734 5730 5726 5722 5718 5714 5708 5702 5696 5690 5683 5675 5668 5661 5652 5643 5636 5631 5628 5625 5622 5618 5614 5610 5607 5604 5600 5596 5592 5589 5586 5583 5581 5579 5577 5575 5575 5577 5579
5778 5780 5780 5782 5783 5784 5784 5784 5784 5784 5785 5787 5790 5790 5789 5789 5789 5787 5786 5786 5786 5784 5783 5783 5782 5781 5780 5779 5779 5779 5777 5775 5774 5773 5772 5770 5769 5767 5765 5763 5761 5759 5756 5753 5750 5746 5742 5740 5739 5734 5729 5725 5721 5718 5713 5708 5703 5697 5690 5683 5677 5669 5662 5654 5647 5639 5632 5628 5624 5621 5618 5614 5610 5607 5605 5601 5598 5595 5592 5590 5588 5586 5584 5584 5583 5584 5586 5588
5774 5775 5776 5778 5779 5779 5780 5780 5780 5781 5782 5785 5787 5786 5786 5786 5785 5784 5784 5783 5783 5781 5780 5780 5779 5778 5778 5777 5776 5776 5776 5774 5772 5771 5770 5768 5767 5766 5764 5762 5760 5758 5755 5753 5750 5747 5742 5739 5738 5735 5731 5727 5721 5716 5713 5709 5703 5697 5691 5685 5678 5672 5667 5660 5652 5644 5636 5630 5625 5620 5617 5614 5611 5609 5607 5604 5602 5599 5596 5595 5594 5593 5591 5591 5591 5594 5596 5598
5770 5770 5772 5773 5774 5775 5775 5775 5776 5778 5779 5781 5783 5783 5782 5782 5782 5781 5781 5780 5780 5778 5778 5777 5777 5776 5775 5775 5774 5773 5773 5773 5771 5769 5768 5767 5765 5764 5762 5761 5759 5757 5755 5752 5749 5746 5743 5739 5736 5734 5730 5727 5723 5718 5713 5709 5703 5698 5693 5687 5680 5675 5670 5664 5657 5648 5640 5634 5629 5624 5620 5617 5615 5613 5611 5609 5607 5605 5603 5602 5601 5600 5599 5598 5600 5604 5607 5610
5764 5766 5768 5769 5770 5770 5771 5771 5772 5774 5776 5778 5780 5779 5778 5778 5778 5778 5778 5777 5776 5775 5775 5774 5774 5773 5773 5772 5772 5771 5770 5770 5769 5768 5766 5765 5764 5763 5761 5759 5758 5756 5754 5752 5749 5745 5741 5738 5736 5734 5730 5726 5724 5721 5715 5709 5704 5699 5695 5689 5683 5677 5671 5666 5660 5654 5647 5641 5635 5630 5625 5623 5621 5618 5616 5615 5614 5612 5611 5609 5609 5608 5608 5607 5609 5613 5618 5621
5759 5761 5763 5764 5764 5765 5765 5766 5769 5771 5773 5775 5776 5775 5774 5774 5775 5775 5775 5774 5773 5772 5772 5771 5771 5771 5770 5769 5769 5768 5768 5768 5768 5766 5764 5763 5762 5761 5760 5758 5757 5755 5753 5751 5749 5745 5740 5737 5734 5733 5731 5728 5725 5721 5716 5710 5705 5701 5696 5691 5685 5680 5675 5669 5665 5660 5654 5648 5641 5636 5632 5629 5627 5624 5622 5621 5620 5618 5617 5617 5617 5617 5617 5618 5619 5622 5626 5629
5754 5756 5757 5758 5759 5760 5761 5763 5766 5768 5769 5771 5771 5771 5771 5770 5771 5772 5772 5771 5769 5769 5769 5769 5768 5767 5767 5767 5766 5766 5765 5765 5765 5765 5762 5761 5760 5759 5758 5757 5756 5754 5752 5750 5748 5745 5740 5735 5731 5729 5728 5726 5722 5719 5716 5711 5707 5702 5697 5693 5688 5683 5679 5674 5670 5665 5659 5653 5647 5642 5639 5636 5633 5630 5628 5626 5625 5624 5623 5624 5625 5625 5625 5626 5627 5630 5634 5637
5749 5750 5751 5752 5754 5756 5758 5760 5763 5764 5765 5766 5766 5766 5767 5767 5768 5769 5768 5767 5766 5766 5766 5765 5765 5764 5764 5764 5763 5763 5763 5762 5762 5762 5761 5759 5758 5758 5757 5756 5754 5753 5751 5749 5747 5745 5741 5736 5732 5727 5724 5721 5718 5715 5714 5711 5708 5703 5699 5695 5691 5686 5682 5677 5673 5669 5664 5659 5655 5650 5645 5643 5640 5637 5634 5632 5630 5630 5631 5632 5632 5632 5633 5633 5634 5636 5640 5644
5743 5744 5745 5748 5750 5753 5755 5757 5758 5759 5761 5762 5762 5762 5763 5763 5764 5765 5764 5764 5763 5763 5762 5762 5762 5762 5761 5761 5760 5761 5760 5759 5759 5759 5758 5757 5757 5756 5755 5754 5753 5752 5750 5749 5747 5745 5742 5738 5733 5730 5726 5723 5720 5716 5714 5712 5709 5706 5702 5698 5693 5688 5685 5680 5676 5672 5667 5664 5660 5655 5651 5649 5647 5644 5641 5638 5636 5637 5638 5638 5638 5638 5639 5640 5641 5642 5645 5649
5737 5738 5741 5745 5747 5748 5750 5752 5754 5755 5757 5757 5756 5757 5759 5760 5760 5761 5761 5760 5760 5759 5758 5758 5759 5758 5758 5758 5757 5758 5758 5757 5757 5757 5756 5755 5755 5754 5753 5752 5752 5751 5749 5748 5746 5744 5742 5738 5735 5731 5728 5726 5723 5720 5717 5714 5711 5708 5704 5700 5695 5691 5687 5684 5680 5675 5671 5667 5664 5660 5656 5653 5651 5649 5647 5644 5642 5642 5643 5643 5643 5644 5644 5645 5647 5648 5651 5655
5731 5734 5738 5740 5742 5743 5746 5748 5749 5750 5751 5752 5752 5753 5755 5757 5757 5758 5757 5756 5756 5756 5755 5755 5756 5754 5754 5754 5755 5755 5755 5753 5754 5755 5754 5753 5752 5752 5752 5751 5750 5749 5748 5746 5745 5743 5741 5738 5735 5732 5729 5726 5724 5721 5717 5715 5712 5709 5706 5702 5698 5694 5690 5686 5683 5679 5675 5671 5667 5664 5661 5658 5655 5653 5651 5650 5648 5648 5649 5648 5649 5650 5650 5651 5653 5654 5657 5661
5726 5730 5734 5736 5737 5739 5741 5743 5743 5744 5745 5746 5747 5749 5751 5753 5754 5754 5752 5752 5753 5752 5752 5752 5752 5750 5750 5751 5751 5752 5751 5750 5752 5752 5751 5750 5750 5750 5749 5749 5748 5747 5746 5745 5744 5742 5740 5738 5735 5733 5730 5727 5724 5721 5718 5716 5713 5710 5707 5704 5700 5697 5693 5689 5686 5683 5680 5676 5672 5669 5666 5663 5661 5659 5656 5655 5654 5654 5654 5654 5654 5655 5655 5656 5658 5661 5664 5668
5722 5726 5729 5731 5732 5734 5736 5736 5737 5739 5740 5740 5742 5746 5748 5749 5750 5749 5748 5748 5748 5749 5749 5749 5748 5746 5746 5748 5748 5748 5747 5748 5750 5749 5748 5748 5748 5747 5747 5747 5746 5746 5745 5744 5742 5741 5739 5737 5735 5733 5730 5727 5725 5722 5720 5717 5714 5712 5709 5705 5702 5700 5696 5693 5689 5686 5684 5681 5678 5674 5671 5669 5667 5664 5662 5660 5660 5659 5659 5659 5659 5659 5660 5662 5664 5668 5671 5675
5718 5721 5724 5725 5727 5728 5729 5730 5731 5732 5733 5736 5740 5743 5743 5743 5744 5744 5744 5744 5744 5745 5746 5745 5743 5743 5743 5745 5745 5743 5744 5745 5746 5745 5745 5746 5745 5745 5745 5744 5744 5744 5743 5742 5741 5740 5738 5737 5734 5732 5730 5728 5726 5723 5721 5718 5716 5713 5710 5707 5705 5702 5699 5696 5693 5690 5687 5685 5683 5680 5677 5675 5672 5669 5667 5666 5665 5664 5664 5664 5664 5665 5667 5668 5671 5674 5677 5680
5713 5716 5718 5720 5720 5721 5723 5725 5725 5726 5729 5733 5737 5738 5738 5738 5739 5739 5740 5740 5741 5742 5741 5740 5740 5740 5740 5741 5741 5740 5740 5742 5742 5742 5742 5743 5743 5743 5742 5742 5741 5742 5741 5741 5740 5739 5737 5736 5734 5732 5730 5728 5726 5724 5721 5719 5717 5715 5712 5709 5707 5704 5701 5699 5696 5693 5690 5688 5686 5684 5682 5680 5677 5675 5673 5672 5671 5670 5669 5669 5670 5672 5674 5675 5677 5679 5682 5685